Whiting Fld NAS, FL

4:34 PM CST on November 21, 2019 (GMT -0600)
Whiting Field Naval Air Station (North)

Weather History for KNSE - September, 2019

Change the Weather History Date:

Sunday, September 1, 2019

  Actual Average Record
Temperature  
Mean Temperature 81 °F -  
Max Temperature 91 °F 86 °F 96 °F (2015)
Min Temperature 73 °F 69 °F 69 °F (1996)
Cooling Degree Days 16    
Growing Degree Days 31 (Base 50)    
Moisture  
Dew Point 74 °F    
Average Humidity 88    
Maximum Humidity 100    
Minimum Humidity 55    
Precipitation  
Precipitation 0.00 in - - ()
Sea Level Pressure  
Sea Level Pressure 29.99 in    
Wind  
Wind Speed 5 mph (NE)    
Max Wind Speed 8 mph    
Max Gust Speed -    
Visibility 10 miles    
Events      
Averages and records for this station are not official NWS values.
T = Trace of Precipitation, MM = Missing Value Source: NWS Daily Summary

Daily Weather History Graph

Daily Weather History Graph

Search for Another Location

Airport or City:

Astronomy

Sep. 01, 2019 Rise Set
Actual Time 6:24 AM CDT 7:11 PM CDT
Civil Twilight 5:59 AM CDT 7:35 PM CDT
Nautical Twilight 5:30 AM CDT 8:04 PM CDT
Astronomical Twilight 5:01 AM CDT 8:34 PM CDT
Moon 8:46 AM CDT (9/1) 9:09 PM CDT (9/1)
Length of Visible Light 13h 36m
Length of Day
12h 46m
Waxing Crescent, 8% of the Moon is Illuminated
Sep 1
Waxing Crescent
Sep 5
First Quarter
Sep 13
Full
Sep 21
Last Quarter
Sep 28
New

Hourly Weather History & Observations

Time (CDT) Temp. Heat Index Dew Point Humidity Pressure Visibility Wind Dir Wind Speed Gust Speed Precip Events Conditions
12:19 AM 75.0 °F - 75.0 °F 100% 30.02 in 10.0 mi NE 5.8 mph - N/A   Scattered Clouds
12:56 AM 73.9 °F - 73.9 °F 100% 29.96 in 10.0 mi Variable 4.6 mph - N/A   Clear
1:39 AM 73.0 °F - 73.0 °F 100% 30.01 in 10.0 mi Variable 3.5 mph - N/A   Partly Cloudy
1:56 AM 73.0 °F - 73.0 °F 100% 29.96 in 10.0 mi Variable 3.5 mph - N/A   Partly Cloudy
2:21 AM 73.0 °F - 73.0 °F 100% 30.01 in 10.0 mi NE 3.5 mph - N/A   Mostly Cloudy
2:28 AM 73.0 °F - 73.0 °F 100% 30.01 in 10.0 mi NE 4.6 mph - N/A   Mostly Cloudy
2:56 AM 73.0 °F - 73.0 °F 100% 29.96 in 10.0 mi Variable 3.5 mph - N/A   Overcast
3:35 AM 73.9 °F - 73.0 °F 97% 30.00 in 10.0 mi East 4.6 mph - N/A   Overcast
3:53 AM 73.4 °F - 73.4 °F 100% 30.00 in 10.0 mi East 6.9 mph - N/A   Overcast
3:56 AM 73.9 °F - 73.0 °F 97% 29.96 in 10.0 mi East 5.8 mph - N/A   Overcast
4:56 AM 73.9 °F - 73.9 °F 100% 29.97 in 10.0 mi Variable 3.5 mph - N/A   Overcast
5:27 AM 73.9 °F - 73.9 °F 100% 30.01 in 10.0 mi ENE 3.5 mph - N/A   Overcast
5:56 AM 73.9 °F - 73.9 °F 100% 29.98 in 10.0 mi Calm Calm - N/A   Overcast
6:56 AM 73.9 °F - 73.9 °F 100% 30.00 in 10.0 mi NE 4.6 mph - N/A   Overcast
7:09 AM 73.9 °F - 73.0 °F 97% 30.05 in 10.0 mi NE 4.6 mph - N/A   Overcast
7:40 AM 75.0 °F - 73.9 °F 96% 30.05 in 10.0 mi Variable 4.6 mph - N/A   Overcast
7:56 AM 75.0 °F - 73.9 °F 96% 30.01 in 10.0 mi NE 6.9 mph - N/A   Overcast
8:48 AM 75.9 °F - 73.9 °F 94% 30.06 in 10.0 mi ENE 5.8 mph - N/A   Overcast
8:56 AM 75.9 °F - 73.9 °F 94% 30.02 in 10.0 mi Variable 5.8 mph - N/A   Overcast
9:56 AM 79.0 °F - 75.0 °F 88% 30.02 in 10.0 mi ENE 8.1 mph - N/A   Overcast
10:24 AM 80.1 °F 85.1 °F 75.0 °F 85% 30.07 in 10.0 mi East 6.9 mph - N/A   Overcast
10:56 AM 82.9 °F 90.8 °F 75.9 °F 79% 30.02 in 10.0 mi Variable 4.6 mph - N/A   Mostly Cloudy
11:13 AM 84.0 °F 92.6 °F 75.9 °F 76% 30.06 in 10.0 mi ENE 6.9 mph - N/A   Mostly Cloudy
11:56 AM 84.9 °F 94.1 °F 75.9 °F 74% 30.00 in 10.0 mi NE 5.8 mph - N/A   Mostly Cloudy
12:20 PM 84.9 °F 93.3 °F 75.0 °F 72% 30.04 in 10.0 mi ENE 4.6 mph - N/A   Mostly Cloudy
12:56 PM 88.0 °F 97.5 °F 75.0 °F 65% 29.99 in 10.0 mi Variable 6.9 mph - N/A   Scattered Clouds
1:56 PM 89.1 °F 98.0 °F 73.9 °F 61% 29.96 in 10.0 mi East 6.9 mph - N/A   Partly Cloudy
2:56 PM 89.1 °F 95.0 °F 71.1 °F 55% 29.94 in 10.0 mi Variable 5.8 mph - N/A   Clear
3:56 PM 88.0 °F 96.5 °F 73.9 °F 63% 29.93 in 10.0 mi East 3.5 mph - N/A   Clear
4:56 PM 86.0 °F 95.1 °F 75.0 °F 70% 29.93 in 10.0 mi NNW 3.5 mph - N/A   Scattered Clouds
5:56 PM 84.0 °F 92.6 °F 75.9 °F 76% 29.93 in 10.0 mi NE 3.5 mph - N/A   Partly Cloudy
6:56 PM 82.0 °F 88.6 °F 75.0 °F 79% 29.94 in 10.0 mi North 3.5 mph - N/A   Clear
7:56 PM 79.0 °F - 75.0 °F 88% 29.95 in 10.0 mi North 4.6 mph - N/A   Clear
8:56 PM 78.1 °F - 75.0 °F 90% 29.96 in 10.0 mi North 3.5 mph - N/A   Clear
9:56 PM 77.0 °F - 73.9 °F 90% 29.96 in 10.0 mi ENE 3.5 mph - N/A   Clear
10:56 PM 75.9 °F - 73.9 °F 94% 29.95 in 10.0 mi NE 4.6 mph - N/A   Clear
11:56 PM 75.9 °F - 73.9 °F 94% 29.94 in 10.0 mi NNE 3.5 mph - N/A   Clear